sat.trackr.live / text

‹ back to catalog

STARLINK-34176

NORAD 64104 · 2025-110J

PAYLOAD ACTIVE UNKNOWN

§ Identity

Operator
Country
US
Launch date
2025-05-23
Launch site
AFWTR
Launch vehicle
Mass (kg)
RCS (m²)

Purposes: comms

External: N2YO · Heavens-Above · Gunter

§ Orbital elements

Epoch: 2026-09-19T13:52:48.728928Z

Period
93.85 min
Inclination
53.1600°
Eccentricity
0.0001966
Mean motion
15.34395274 rev/d
Perigee alt
461.4 km
Apogee alt
464.1 km
Semi-major
6,840.9 km
B*
7.1894e-4
RAAN
205.7496°
Arg perigee
78.9374°
Mean anomaly
281.1850°
Rev number
7,557

§ Raw data

STARLINK-341761 64104U 25110J   26262.57834177  .00023989  00000+0  71894-3 0  99962 64104  53.1600 205.7496 0001966  78.9374 281.1850 15.34395274 75577

JSON: /api/v1/satellites/64104 · /tle

For live sub-satellite position, see the globe view (requires WebGL).

§ Visibility from observer

Set your observer location to see the next 7 days of passes ≥ 10°. The values pass through the URL so the page stays shareable.

No JS? Fill the form by hand. The geolocation button needs JavaScript.